| time (UTC) | temp F | wind direction | speed MPH | gust MPH | rain 1hr in | rain 24hr in | rain mn in | humidity % | barometer mb |
| 20260510214315 | 36 | 320 | 2.0 | 4.0 | 0.00 | 0.06 | 0.06 | 89 | 1005.2 |
| 20260510213316 | 36 | 300 | 0.0 | 2.0 | 0.00 | 0.06 | 0.06 | 89 | 1005.2 |
| 20260510212315 | 36 | 285 | 0.0 | 1.0 | 0.00 | 0.06 | 0.06 | 88 | 1005.3 |
| 20260510211314 | 36 | 285 | 1.0 | 3.0 | 0.00 | 0.06 | 0.06 | 88 | 1005.4 |
| 20260510210313 | 36 | 285 | 2.0 | 2.0 | 0.00 | 0.06 | 0.06 | 88 | 1005.3 |
| 20260510205313 | 37 | 341 | 0.0 | 2.0 | 0.00 | 0.06 | 0.06 | 88 | 1005.5 |
| 20260510204313 | 37 | 341 | 0.0 | 2.0 | 0.00 | 0.06 | 0.06 | 88 | 1005.5 |
| 20260510203315 | 37 | 341 | 1.0 | 3.0 | 0.00 | 0.06 | 0.06 | 88 | 1005.7 |
| 20260510202749 | 38 | 341 | 2.0 | 3.0 | 0.00 | 0.06 | 0.06 | 88 | 1005.7 |
| 20260510201314 | 38 | 341 | 1.0 | 2.0 | 0.00 | 0.06 | 0.06 | 88 | 1005.7 |
| 20260510200807 | 38 | 341 | 1.0 | 2.0 | 0.00 | 0.06 | 0.06 | 87 | 1005.7 |
| 20260510195313 | 39 | 341 | 1.0 | 2.0 | 0.00 | 0.06 | 0.06 | 87 | 1005.7 |
| 20260510194311 | 40 | 341 | 1.0 | 2.0 | 0.00 | 0.06 | 0.06 | 86 | 1005.7 |
| 20260510193312 | 40 | 341 | 1.0 | 2.0 | 0.00 | 0.06 | 0.06 | 86 | 1005.7 |
| 20260510192314 | 40 | 341 | 2.0 | 2.0 | 0.00 | 0.06 | 0.06 | 87 | 1005.7 |
| 20260510191311 | 41 | 341 | 2.0 | 3.0 | 0.00 | 0.06 | 0.06 | 87 | 1005.6 |
| 20260510190315 | 42 | 103 | 0.0 | 2.0 | 0.00 | 0.06 | 0.06 | 87 | 1005.7 |
| 20260510185306 | 42 | 103 | 1.0 | 2.0 | 0.00 | 0.06 | 0.06 | 87 | 1005.6 |
| 20260510184307 | 42 | 103 | 1.0 | 2.0 | 0.00 | 0.06 | 0.06 | 87 | 1005.8 |
| 20260510183306 | 43 | 103 | 1.0 | 2.0 | 0.00 | 0.06 | 0.06 | 87 | 1005.9 |
| 20260510182745 | 43 | 103 | 1.0 | 2.0 | 0.00 | 0.06 | 0.06 | 87 | 1005.9 |
| 20260510181739 | 43 | 103 | 1.0 | 1.0 | 0.00 | 0.06 | 0.06 | 88 | 1005.8 |
| 20260510180304 | 43 | 103 | 1.0 | 4.0 | 0.00 | 0.06 | 0.06 | 88 | 1005.9 |
| 20260510175305 | 43 | 110 | 2.0 | 4.0 | 0.00 | 0.06 | 0.06 | 89 | 1006.0 |
| 20260510174303 | 43 | 106 | 4.0 | 9.0 | 0.00 | 0.06 | 0.06 | 89 | 1006.0 |
| 20260510173303 | 43 | 123 | 5.0 | 9.0 | 0.01 | 0.06 | 0.06 | 88 | 1006.0 |
| 20260510172743 | 44 | 152 | 4.0 | 8.0 | 0.01 | 0.06 | 0.06 | 89 | 1006.2 |
| 20260510171302 | 44 | 134 | 4.0 | 6.0 | 0.01 | 0.06 | 0.06 | 88 | 1006.2 |
| 20260510171208 | 44 | 93 | 3.0 | 5.0 | 0.01 | 0.06 | 0.06 | 88 | 1006.4 |
| 20260510165305 | 44 | 114 | 3.0 | 6.0 | 0.01 | 0.06 | 0.06 | 88 | 1006.5 |
| 20260510164302 | 44 | 129 | 3.0 | 6.0 | 0.01 | 0.06 | 0.06 | 88 | 1006.6 |
| 20260510163303 | 44 | 158 | 2.0 | 5.0 | 0.00 | 0.06 | 0.06 | 88 | 1006.7 |
| 20260510162301 | 44 | 147 | 2.0 | 4.0 | 0.00 | 0.06 | 0.06 | 87 | 1006.7 |
| 20260510161305 | 44 | 154 | 2.0 | 3.0 | 0.00 | 0.06 | 0.06 | 89 | 1006.7 |
| 20260510160302 | 44 | 154 | 1.0 | 3.0 | 0.00 | 0.06 | 0.06 | 88 | 1007.1 |
| 20260510155308 | 43 | 256 | 1.0 | 2.0 | 0.01 | 0.06 | 0.06 | 89 | 1007.3 |
| 20260510155221 | 43 | 256 | 2.0 | 3.0 | 0.01 | 0.06 | 0.06 | 87 | 1007.4 |
| 20260510153301 | 44 | 271 | 3.0 | 6.0 | 0.01 | 0.06 | 0.06 | 87 | 1007.5 |
| 20260510152300 | 44 | 275 | 3.0 | 6.0 | 0.02 | 0.06 | 0.06 | 87 | 1007.7 |
| 20260510151300 | 44 | 204 | 2.0 | 7.0 | 0.02 | 0.06 | 0.06 | 89 | 1007.9 |
| 20260510150301 | 44 | 208 | 3.0 | 7.0 | 0.02 | 0.06 | 0.06 | 88 | 1008.1 |
| 20260510145742 | 44 | 266 | 2.0 | 5.0 | 0.02 | 0.05 | 0.05 | 89 | 1008.2 |
| 20260510144300 | 44 | 244 | 2.0 | 5.0 | 0.02 | 0.05 | 0.05 | 89 | 1008.2 |
| 20260510143258 | 44 | 247 | 4.0 | 8.0 | 0.02 | 0.05 | 0.05 | 88 | 1008.5 |
| 20260510142258 | 44 | 274 | 2.0 | 7.0 | 0.02 | 0.04 | 0.04 | 89 | 1008.7 |
| 20260510141300 | 44 | 208 | 1.0 | 4.0 | 0.02 | 0.04 | 0.04 | 89 | 1008.7 |
| 20260510140259 | 44 | 230 | 4.0 | 8.0 | 0.02 | 0.04 | 0.04 | 89 | 1008.8 |
| 20260510135258 | 44 | 246 | 4.0 | 8.0 | 0.02 | 0.03 | 0.03 | 87 | 1008.8 |
| 20260510134301 | 44 | 291 | 3.0 | 6.0 | 0.02 | 0.03 | 0.03 | 88 | 1009.0 |
| 20260510133257 | 44 | 258 | 5.0 | 10.0 | 0.02 | 0.02 | 0.02 | 87 | 1009.1 |
| 20260510132257 | 44 | 268 | 6.0 | 11.0 | 0.01 | 0.02 | 0.02 | 87 | 1009.1 |
| 20260510131256 | 45 | 245 | 7.0 | 13.0 | 0.01 | 0.02 | 0.02 | 85 | 1009.2 |
| 20260510130259 | 46 | 202 | 4.0 | 9.0 | 0.01 | 0.02 | 0.02 | 84 | 1009.1 |
| 20260510125256 | 46 | 222 | 3.0 | 11.0 | 0.01 | 0.01 | 0.01 | 81 | 1009.1 |
| 20260510124258 | 46 | 214 | 5.0 | 13.0 | 0.01 | 0.01 | 0.01 | 81 | 1009.2 |
| 20260510123257 | 46 | 215 | 6.0 | 15.0 | 0.01 | 0.01 | 0.01 | 78 | 1009.4 |
| 20260510122742 | 47 | 220 | 6.0 | 14.0 | 0.01 | 0.01 | 0.01 | 77 | 1009.4 |
| 20260510121743 | 46 | 193 | 4.0 | 11.0 | 0.01 | 0.01 | 0.01 | 83 | 1009.5 |
| 20260510120737 | 45 | 142 | 6.0 | 15.0 | 0.01 | 0.01 | 0.01 | 83 | 1009.8 |
| 20260510115252 | 44 | 235 | 7.0 | 15.0 | 0.00 | 0.00 | 0.00 | 81 | 1009.9 |
| 20260510114251 | 46 | 254 | 9.0 | 20.0 | 0.00 | 0.00 | 0.00 | 77 | 1010.0 |
| 20260510113250 | 47 | 231 | 5.0 | 14.0 | 0.00 | 0.00 | 0.00 | 72 | 1010.0 |
| 20260510112250 | 47 | 242 | 7.0 | 16.0 | 0.00 | 0.00 | 0.00 | 74 | 1010.1 |
| 20260510111250 | 47 | 226 | 9.0 | 17.0 | 0.00 | 0.00 | 0.00 | 72 | 1010.0 |
| 20260510110250 | 49 | 193 | 6.0 | 16.0 | 0.00 | 0.00 | 0.00 | 60 | 1010.0 |
| 20260510105250 | 50 | 221 | 6.0 | 13.0 | 0.00 | 0.00 | 0.00 | 58 | 1010.0 |
| 20260510104250 | 50 | 199 | 5.0 | 12.0 | 0.00 | 0.00 | 0.00 | 56 | 1010.1 |
| 20260510103726 | 50 | 243 | 5.0 | 15.0 | 0.00 | 0.00 | 0.00 | 60 | 1010.2 |
| 20260510102245 | 49 | 217 | 9.0 | 19.0 | 0.00 | 0.00 | 0.00 | 62 | 1010.2 |
| 20260510101716 | 50 | 233 | 8.0 | 19.0 | 0.00 | 0.00 | 0.00 | 62 | 1010.4 |
| 20260510100247 | 50 | 258 | 10.0 | 22.0 | 0.00 | 0.00 | 0.00 | 58 | 1010.4 |
| 20260510095248 | 51 | 226 | 7.0 | 17.0 | 0.00 | 0.00 | 0.00 | 53 | 1010.3 |
| 20260510094244 | 53 | 186 | 8.0 | 14.0 | 0.00 | 0.00 | 0.00 | 50 | 1010.4 |
| 20260510093718 | 52 | 265 | 6.0 | 13.0 | 0.00 | 0.00 | 0.00 | 51 | 1010.4 |
| 20260510092726 | 52 | 300 | 5.0 | 10.0 | 0.00 | 0.00 | 0.00 | 51 | 1010.5 |
| 20260510091245 | 52 | 20 | 3.0 | 9.0 | 0.00 | 0.00 | 0.00 | 49 | 1010.5 |
| 20260510090245 | 52 | 89 | 2.0 | 5.0 | 0.00 | 0.00 | 0.00 | 53 | 1010.6 |
| 20260510085242 | 51 | 141 | 4.0 | 9.0 | 0.00 | 0.00 | 0.00 | 54 | 1010.8 |
| 20260510084725 | 51 | 141 | 4.0 | 6.0 | 0.00 | 0.00 | 0.00 | 56 | 1010.9 |
| 20260510083243 | 51 | 113 | 3.0 | 6.0 | 0.00 | 0.00 | 0.00 | 55 | 1011.1 |
| 20260510082242 | 50 | 172 | 4.0 | 8.0 | 0.00 | 0.00 | 0.00 | 55 | 1011.1 |
| 20260510081238 | 51 | 89 | 4.0 | 8.0 | 0.00 | 0.00 | 0.00 | 55 | 1011.2 |
| 20260510080240 | 51 | 120 | 4.0 | 7.0 | 0.00 | 0.00 | 0.00 | 53 | 1011.4 |
| 20260510075238 | 50 | 108 | 3.0 | 7.0 | 0.00 | 0.00 | 0.00 | 55 | 1011.5 |
| 20260510074238 | 50 | 59 | 3.0 | 7.0 | 0.00 | 0.00 | 0.00 | 56 | 1011.7 |
| 20260510073711 | 49 | 62 | 4.0 | 8.0 | 0.00 | 0.00 | 0.00 | 56 | 1011.9 |
| 20260510072238 | 49 | 56 | 2.0 | 7.0 | 0.00 | 0.00 | 0.00 | 58 | 1012.0 |
| 20260510072202 | 49 | 75 | 3.0 | 7.0 | 0.00 | 0.00 | 0.00 | 59 | 1012.3 |
| 20260510070238 | 48 | 106 | 5.0 | 8.0 | 0.00 | 0.00 | 0.00 | 61 | 1012.3 |
| 20260510065238 | 47 | 121 | 3.0 | 7.0 | 0.00 | 0.00 | 0.00 | 59 | 1012.4 |
| 20260510064232 | 47 | 88 | 4.0 | 9.0 | 0.00 | 0.00 | 0.00 | 65 | 1012.6 |
| 20260510063231 | 46 | 89 | 6.0 | 10.0 | 0.00 | 0.00 | 0.00 | 64 | 1012.7 |
| 20260510062233 | 45 | 67 | 5.0 | 9.0 | 0.00 | 0.00 | 0.00 | 64 | 1012.8 |
| 20260510061231 | 45 | 120 | 4.0 | 10.0 | 0.00 | 0.00 | 0.00 | 65 | 1012.9 |
| 20260510060231 | 44 | 117 | 5.0 | 9.0 | 0.00 | 0.00 | 0.00 | 65 | 1013.0 |
| 20260510055231 | 44 | 77 | 5.0 | 8.0 | 0.00 | 0.00 | 0.00 | 66 | 1013.1 |
| 20260510055154 | 43 | 100 | 4.0 | 8.0 | 0.00 | 0.00 | 0.00 | 69 | 1013.3 |
| 20260510053710 | 43 | 86 | 3.0 | 5.0 | 0.00 | 0.00 | 0.00 | 70 | 1013.4 |
| 20260510052232 | 42 | 100 | 2.0 | 4.0 | 0.00 | 0.00 | 0.00 | 71 | 1013.5 |
| 20260510051230 | 42 | 62 | 1.0 | 3.0 | 0.00 | 0.00 | 0.00 | 72 | 1013.7 |
| 20260510050230 | 41 | 95 | 0.0 | 2.0 | 0.00 | 0.00 | 0.00 | 72 | 1013.8 |
| 20260510045230 | 40 | 333 | 0.0 | 0.0 | 0.00 | 0.00 | 0.00 | 75 | 1013.9 |
| 20260510044231 | 39 | 333 | 0.0 | 0.0 | 0.00 | 0.00 | 0.00 | 78 | 1013.8 |
| 20260510043230 | 38 | 333 | 0.0 | 0.0 | 0.00 | 0.00 | 0.00 | 79 | 1014.0 |
| 20260510042708 | 37 | 333 | 0.0 | 0.0 | 0.00 | 0.00 | 0.00 | 81 | 1014.0 |
| 20260510041711 | 36 | 333 | 0.0 | 0.0 | 0.00 | 0.00 | 0.00 | 81 | 1014.1 |
| 20260510040231 | 36 | 333 | 0.0 | 0.0 | 0.00 | 0.00 | 0.00 | 81 | 1014.2 |
| 20260510035717 | 36 | 333 | 0.0 | 0.0 | 0.00 | 0.00 | 0.00 | 80 | 1014.3 |
| 20260510034233 | 36 | 324 | 0.0 | 2.0 | 0.00 | 0.00 | 0.00 | 80 | 1014.5 |
| 20260510033711 | 36 | 324 | 2.0 | 2.0 | 0.00 | 0.00 | 0.00 | 79 | 1014.7 |
| 20260510032230 | 36 | 324 | 1.0 | 3.0 | 0.00 | 0.00 | 0.00 | 78 | 1014.8 |
| 20260510031231 | 36 | 324 | 1.0 | 2.0 | 0.00 | 0.00 | 0.00 | 76 | 1014.8 |
| 20260510030231 | 36 | 324 | 0.0 | 2.0 | 0.00 | 0.00 | 0.00 | 76 | 1015.0 |
| 20260510025230 | 36 | 324 | 0.0 | 0.0 | 0.00 | 0.00 | 0.00 | 76 | 1015.0 |
| 20260510024231 | 36 | 324 | 1.0 | 2.0 | 0.00 | 0.00 | 0.00 | 76 | 1015.1 |
| 20260510023704 | 36 | 324 | 1.0 | 2.0 | 0.00 | 0.00 | 0.00 | 76 | 1015.2 |
| 20260510022231 | 36 | 324 | 1.0 | 2.0 | 0.00 | 0.00 | 0.00 | 76 | 1015.4 |
| 20260510021230 | 36 | 324 | 1.0 | 3.0 | 0.00 | 0.00 | 0.00 | 76 | 1015.7 |
| 20260510021142 | 37 | 328 | 2.0 | 4.0 | 0.00 | 0.00 | 0.00 | 76 | 1015.8 |
| 20260510015233 | 37 | 345 | 1.0 | 3.0 | 0.00 | 0.00 | 0.00 | 75 | 1015.7 |
| 20260510014230 | 37 | 354 | 1.0 | 2.0 | 0.00 | 0.00 | 0.00 | 74 | 1015.9 |
| 20260510013230 | 37 | 282 | 2.0 | 2.0 | 0.00 | 0.00 | 0.00 | 74 | 1016.1 |
| 20260510012231 | 37 | 282 | 0.0 | 1.0 | 0.00 | 0.00 | 0.00 | 73 | 1016.2 |
| 20260510011715 | 37 | 282 | 1.0 | 3.0 | 0.00 | 0.00 | 0.00 | 73 | 1016.2 |
| 20260510010231 | 37 | 282 | 2.0 | 4.0 | 0.00 | 0.00 | 0.00 | 73 | 1016.5 |
| 20260510005706 | 37 | 356 | 1.0 | 3.0 | 0.00 | 0.00 | 0.00 | 73 | 1016.5 |
| 20260510004231 | 37 | 310 | 0.0 | 0.0 | 0.00 | 0.00 | 0.00 | 72 | 1016.6 |
| 20260510004146 | 37 | 55 | 0.0 | 0.0 | 0.00 | 0.00 | 0.00 | 71 | 1016.6 |
| 20260510002231 | 38 | 55 | 0.0 | 0.0 | 0.00 | 0.00 | 0.00 | 70 | 1016.7 |
| 20260510001231 | 38 | 55 | 0.0 | 0.0 | 0.00 | 0.00 | 0.00 | 71 | 1016.7 |
| 20260510000233 | 38 | 89 | 0.0 | 1.0 | 0.00 | 0.00 | 0.00 | 71 | 1016.9 |
| 20260510000151 | 38 | 89 | 0.0 | 2.0 | 0.00 | 0.00 | 0.00 | 70 | 1016.8 |
| 20260509234230 | 39 | 89 | 1.0 | 2.0 | 0.00 | 0.00 | 0.00 | 69 | 1016.9 |
| 20260509233231 | 39 | 89 | 1.0 | 3.0 | 0.00 | 0.00 | 0.00 | 67 | 1017.0 |
| 20260509232231 | 40 | 349 | 0.0 | 0.0 | 0.00 | 0.00 | 0.00 | 66 | 1017.0 |
| 20260509231231 | 40 | 349 | 0.0 | 1.0 | 0.00 | 0.00 | 0.00 | 65 | 1017.0 |
| 20260509230231 | 40 | 349 | 0.0 | 1.0 | 0.00 | 0.00 | 0.00 | 64 | 1017.2 |
| 20260509225230 | 40 | 349 | 0.0 | 1.0 | 0.00 | 0.00 | 0.00 | 64 | 1017.3 |
| 20260509224231 | 41 | 349 | 1.0 | 2.0 | 0.00 | 0.00 | 0.00 | 64 | 1017.3 |
| 20260509223230 | 41 | 349 | 1.0 | 3.0 | 0.00 | 0.00 | 0.00 | 65 | 1017.4 |
| 20260509222231 | 41 | 24 | 1.0 | 3.0 | 0.00 | 0.00 | 0.00 | 64 | 1017.4 |
| 20260509221716 | 41 | 27 | 1.0 | 4.0 | 0.00 | 0.00 | 0.00 | 64 | 1017.7 |
| 20260509220231 | 42 | 77 | 2.0 | 3.0 | 0.00 | 0.00 | 0.00 | 60 | 1017.7 |
| 20260509215231 | 42 | 75 | 1.0 | 3.0 | 0.00 | 0.00 | 0.00 | 61 | 1017.7 |